[[{"header":{"parameterUnit":"m.s-1","parameterCategory":1,"la1":30.2991,"la2":30.254,"lo1":-89.0895,"lo2":-89.0444,"dx":0.0017,"dy":0.0017,"nx":28,"ny":28,"refTime":"2022-11-16T09:00:00:Z","depth":0,"parameterNumber":2,"parameterNumberName":"U-component_of_WINDS"},"data":[0,0,0,0,0,0,0,0,0,0,0,0,0,0,0,0,0,0,0,0,0,0,0,0,0,0,0,0,0,0,0,0,0,0,0,0,0,0,0,0,0,0,0,0,0,0,0,0,0,0,0,0,0,0,0,0,0,0,-2.3408,-2.3409,0,-2.3501,-2.3502,-2.3503,-2.3419,-2.3416,-2.3412,-2.3409,-2.3505,-2.3511,-2.3517,0,0,0,0,0,0,0,0,0,0,0,0,0,-2.3158,-2.3163,-2.3408,-2.3409,-2.3411,-2.3501,-2.3502,-2.3503,-2.342,-2.3415,-2.3411,-2.3407,-2.3503,-2.351,-2.3517,0,0,0,0,0,0,0,0,0,0,0,0,0,-2.326,-2.3164,-2.3408,-2.3379,-2.3378,-2.3501,-2.3502,-2.3504,-2.342,-2.3415,-2.341,-2.3405,-2.3501,-2.351,-2.3518,-2.3674,0,0,-2.3544,-2.3548,0,0,0,0,0,0,0,0,-2.3254,-2.3269,-2.3383,-2.3382,-2.338,-2.3443,-2.3449,-2.3561,-2.3422,-2.3404,-2.3409,-2.3403,-2.3489,-2.3498,-2.3527,-2.3679,-2.3683,-2.3545,-2.355,-2.3554,-2.3557,0,0,0,0,0,0,0,-2.3247,-2.3265,-2.3445,-2.3384,-2.3383,-2.3362,-2.3371,-2.347,-2.3474,-2.3405,-2.34,-2.3412,-2.3487,-2.3519,-2.3529,-2.3684,-2.3545,-2.3553,-2.3558,-2.3561,-2.3966,-2.3971,0,0,0,0,0,0,-2.3243,-2.326,-2.3442,-2.3448,-2.3303,-2.3371,-2.338,-2.3428,-2.3473,-2.3475,-2.3416,-2.3407,-2.3507,-2.3519,-2.3532,-2.3716,-2.3554,-2.3562,-2.3567,-2.396,-2.3967,-2.3973,0,0,0,0,0,0,-2.3238,-2.326,-2.3438,-2.3352,-2.3373,-2.338,-2.3434,-2.3433,-2.3464,-2.3481,-2.3481,-2.3447,-2.3503,-2.3519,-2.3639,-2.3718,-2.3566,-2.3574,-2.3954,-2.3963,-2.397,-2.4087,0,0,0,0,0,0,-2.3231,-2.3259,-2.3319,-2.3354,-2.3378,-2.3545,-2.3439,-2.3438,-2.3479,-2.3469,-2.3511,-2.3513,-2.35,-2.3626,-2.3647,-2.3727,-2.3581,-2.3947,-2.3958,-2.3968,-2.4076,-2.4098,-2.4117,0,0,0,0,0,-2.3223,-2.3349,-2.3322,-2.3345,-2.3453,-2.3549,-2.3563,-2.3546,-2.3486,-2.3546,-2.3556,-2.3511,-2.3706,-2.3639,-2.3662,-2.3746,-2.3942,-2.3955,-2.3967,-2.4067,-2.4094,-2.4117,0,0,0,0,0,0,-2.3324,-2.3353,-2.3324,-2.3465,-2.3505,-2.3535,-2.361,-2.3575,-2.3634,-2.3622,-2.3598,-2.3608,-2.3734,-2.3752,-2.3677,-2.3898,-2.3814,-2.3832,-2.3882,-2.3908,-2.3928,-2.3922,-2.3588,0,0,0,0,0,-2.3362,-2.3438,-2.3459,-2.3582,-2.3603,-2.3603,-2.3645,-2.3628,-2.3669,-2.3685,-2.3704,-2.3746,-2.3816,-2.3863,-2.3928,-2.4078,-2.4085,-2.4146,-2.4167,-2.4184,-2.42,-2.4278,-2.4305,-2.4014,-2.4014,-2.4014,0,0,-2.3443,-2.3468,-2.3518,-2.3603,-2.3632,-2.371,-2.3618,-2.3706,-2.3764,-2.3699,-2.3812,-2.3827,-2.3872,-2.4006,-2.4067,-2.4025,-2.4281,-2.42,-2.4213,-2.422,-2.4294,-2.4321,-2.4346,-2.4023,-2.4021,-2.402,0,0,-2.3631,-2.3658,-2.3762,-2.3792,-2.3837,-2.3836,-2.3861,-2.3895,-2.3903,-2.4016,-2.3968,-2.4036,-2.4158,-2.4191,-2.4224,-2.4421,-2.4382,-2.4443,-2.4551,-2.4628,-2.4651,-2.4671,-2.474,-2.4766,-2.4458,-2.4459,-2.4459,0,-2.3726,-2.3842,-2.382,-2.391,-2.3949,-2.3892,-2.3997,-2.4027,-2.4092,-2.4119,-2.4071,-2.4221,-2.4248,-2.4388,-2.4436,-2.4465,-2.4492,-2.4439,-2.4649,-2.4669,-2.4688,-2.4754,-2.478,-2.4466,-2.4465,-2.4464,-2.4464,0,-2.3956,-2.4038,-2.4116,-2.4179,-2.4225,-2.4323,-2.4315,-2.4365,-2.4343,-2.4347,-2.4462,-2.449,-2.456,-2.4592,-2.4572,-2.473,-2.4702,-2.4652,-2.4568,-2.4723,-2.4784,-2.481,-2.4476,-2.4474,-2.4471,-2.447,0,0,-2.4212,-2.4259,-2.4288,-2.4315,-2.4359,-2.4421,-2.4515,-2.4582,-2.4625,-2.4671,-2.4748,-2.4851,-2.4805,-2.4842,-2.4825,-2.4893,-2.5045,-2.4834,-2.4835,-2.4872,-2.5219,-2.5256,-2.5286,-2.5019,-2.5024,-2.5027,-2.5215,0,-2.44,-2.4564,-2.4545,-2.4701,-2.4775,-2.4721,-2.4802,-2.4838,-2.4843,-2.4906,-2.4912,-2.4985,-2.4918,-2.494,-2.5004,-2.5013,-2.5115,-2.4999,-2.5091,-2.5094,-2.5082,-2.5318,-2.5358,-2.5534,-2.5239,-2.5243,-2.5246,0,-2.4643,-2.4696,-2.4858,-2.4889,-2.4919,-2.4993,-2.5052,-2.5113,-2.5152,-2.5151,-2.5191,-2.5162,-2.5255,-2.5167,-2.5295,-2.5217,-2.5253,-2.5263,-2.5269,-2.5277,-2.518,-2.5333,-2.559,-2.5616,-2.5284,-2.5281,-2.5278,0,-2.4812,-2.4924,-2.5035,-2.506,-2.5099,-2.5151,-2.517,-2.5203,-2.5244,-2.5295,-2.5321,-2.5383,-2.5417,-2.5466,-2.5453,-2.5391,-2.5584,-2.5495,-2.5585,-2.5585,-2.5629,-2.5626,-2.5895,-2.5652,-2.5652,-2.5651,-2.5651,0,-2.5025,-2.5126,-2.5112,-2.518,-2.5292,-2.5269,-2.538,-2.5392,-2.5421,-2.549,-2.5447,-2.5513,-2.5493,-2.5558,-2.5548,-2.5655,-2.5671,-2.5672,-2.5668,-2.5676,-2.5676,-2.57,-2.5687,-2.5658,-2.5656,-2.5655,-2.5654,0,-2.5233,-2.5228,-2.5345,-2.5371,-2.538,-2.5461,-2.5483,-2.5547,-2.5548,-2.5636,-2.5655,-2.5657,-2.5731,-2.5723,-2.5806,-2.5799,-2.5931,-2.5913,-2.5918,-2.5914,-2.6004,-2.5995,-2.6298,-2.6335,-2.6068,-2.6071,-2.6073,0,-2.537,-2.5446,-2.548,-2.5523,-2.5545,-2.5615,-2.5656,-2.5635,-2.568,-2.5728,-2.5786,-2.5855,-2.591,-2.603,-2.6038,-2.6101,-2.6083,-2.6185,-2.6093,-2.6097,-2.6084,-2.608,-2.6087,-2.6204,-2.6207,-2.6209,-2.6211,0,-2.5612,-2.5604,-2.5665,-2.5724,-2.5774,-2.582,-2.5862,-2.5899,-2.5882,-2.5934,-2.6009,-2.6051,-2.6134,-2.6203,-2.6262,-2.628,-2.6243,-2.624,-2.6264,-2.6272,-2.6272,-2.6272,-2.5968,-2.6233,-2.6231,-2.6229,-2.6228,-2.6227,-2.5788,-2.5853,-2.5886,-2.5954,-2.5983,-2.6022,-2.6083,-2.609,-2.6152,-2.6218,-2.6202,-2.6286,-2.632,-2.6394,-2.6418,-2.6483,-2.6446,-2.6481,-2.649,-2.6499,-2.6509,-2.6261,-2.6494,-2.6493,-2.6492,-2.6492,-2.6491,0,-2.6027,-2.6045,-2.6108,-2.6167,-2.622,-2.6179,-2.6222,-2.627,-2.6344,-2.6378,-2.6432,-2.6517,-2.6583,-2.6595,-2.6658,-2.6707,-2.6692,-2.6725,-2.6721,-2.6725,-2.6539,-2.6511,-2.6736,-2.6736,-2.6736,-2.6736,-2.6736,-2.6736,-2.6158,-2.6265,-2.6261,-2.6381,-2.6398,-2.648,-2.6508,-2.6543,-2.657,-2.6666,-2.6721,-2.6728,-2.6754,-2.6817,-2.6876,-2.6878,-2.6903,-2.6942,-2.6938,-2.6763,-2.6739,-2.6715,-2.669,-2.6948,-2.6948,-2.7119,-2.712,-2.7121]},{"header":{"parameterUnit":"m.s-1","parameterCategory":1,"la1":30.2991,"la2":30.254,"lo1":-89.0895,"lo2":-89.0444,"dx":0.0017,"dy":0.0017,"nx":28,"ny":28,"refTime":"2022-11-16T09:00:00:Z","depth":0,"parameterNumber":3,"parameterNumberName":"V-component_of_WINDS"},"data":[0,0,0,0,0,0,0,0,0,0,0,0,0,0,0,0,0,0,0,0,0,0,0,0,0,0,0,0,0,0,0,0,0,0,0,0,0,0,0,0,0,0,0,0,0,0,0,0,0,0,0,0,0,0,0,0,0,0,-5.8498,-5.8499,0,-5.8611,-5.8612,-5.8614,-5.8514,-5.851,-5.8506,-5.8502,-5.8614,-5.8621,-5.8627,0,0,0,0,0,0,0,0,0,0,0,0,0,-5.819,-5.8196,-5.8498,-5.8499,-5.8501,-5.8611,-5.8612,-5.8614,-5.8515,-5.851,-5.8505,-5.85,-5.8612,-5.862,-5.8628,0,0,0,0,0,0,0,0,0,0,0,0,0,-5.8315,-5.8198,-5.8498,-5.8465,-5.8463,-5.8611,-5.8612,-5.8614,-5.8516,-5.851,-5.8504,-5.8498,-5.8609,-5.8619,-5.8629,-5.8814,0,0,-5.866,-5.8665,0,0,0,0,0,0,0,0,-5.8308,-5.8327,-5.8468,-5.8467,-5.8465,-5.8542,-5.8545,-5.8681,-5.8517,-5.8496,-5.8502,-5.8495,-5.8595,-5.8606,-5.864,-5.8819,-5.8824,-5.8661,-5.8667,-5.8672,-5.8675,0,0,0,0,0,0,0,-5.83,-5.8321,-5.8542,-5.847,-5.8469,-5.8442,-5.8453,-5.857,-5.8578,-5.8497,-5.849,-5.8505,-5.8593,-5.8631,-5.8642,-5.8826,-5.8661,-5.867,-5.8676,-5.868,-5.9158,-5.9165,0,0,0,0,0,0,-5.8295,-5.8315,-5.8539,-5.8546,-5.837,-5.8453,-5.8465,-5.8524,-5.8577,-5.8579,-5.851,-5.85,-5.8616,-5.8631,-5.8646,-5.8864,-5.8672,-5.8681,-5.8687,-5.9152,-5.916,-5.9167,0,0,0,0,0,0,-5.8289,-5.8316,-5.8534,-5.8428,-5.8454,-5.8465,-5.8531,-5.8529,-5.8567,-5.8587,-5.8587,-5.8548,-5.8612,-5.8632,-5.8772,-5.8866,-5.8686,-5.8695,-5.9144,-5.9154,-5.9163,-5.9302,0,0,0,0,0,0,-5.8281,-5.8315,-5.8387,-5.8431,-5.846,-5.8661,-5.8537,-5.8536,-5.8585,-5.8573,-5.8622,-5.8624,-5.8609,-5.8758,-5.8783,-5.8877,-5.8703,-5.9136,-5.9149,-5.916,-5.9289,-5.9316,-5.9338,0,0,0,0,0,-5.827,-5.8421,-5.8391,-5.8418,-5.8551,-5.8667,-5.8684,-5.8664,-5.8593,-5.8664,-5.8676,-5.8623,-5.8852,-5.8773,-5.88,-5.8899,-5.913,-5.9145,-5.9159,-5.9278,-5.931,-5.9338,0,0,0,0,0,0,-5.8387,-5.8426,-5.8393,-5.8564,-5.8613,-5.865,-5.874,-5.8699,-5.8769,-5.8754,-5.8726,-5.8738,-5.8886,-5.8906,-5.8818,-5.9079,-5.8979,-5.9,-5.906,-5.9091,-5.9115,-5.9106,-5.8711,0,0,0,0,0,-5.8432,-5.8525,-5.8554,-5.8701,-5.8728,-5.873,-5.878,-5.876,-5.881,-5.883,-5.8852,-5.8901,-5.8983,-5.9038,-5.9116,-5.9292,-5.9299,-5.9373,-5.9397,-5.9417,-5.9435,-5.9527,-5.9559,-5.9216,-5.9216,-5.9215,0,0,-5.8528,-5.8561,-5.8621,-5.8726,-5.8761,-5.8856,-5.8748,-5.8853,-5.8922,-5.8845,-5.8979,-5.8998,-5.9049,-5.9208,-5.9279,-5.923,-5.9531,-5.9436,-5.9452,-5.9459,-5.9545,-5.9578,-5.9607,-5.9226,-5.9224,-5.9222,0,0,-5.8749,-5.8784,-5.891,-5.8948,-5.9003,-5.9003,-5.9033,-5.9077,-5.9086,-5.9221,-5.9164,-5.9244,-5.9388,-5.9427,-5.9465,-5.9699,-5.9651,-5.9725,-5.9852,-5.9942,-5.9969,-5.9992,-6.0073,-6.0103,-5.9743,-5.9743,-5.9743,0,-5.886,-5.9002,-5.8979,-5.9088,-5.9134,-5.9069,-5.9194,-5.9232,-5.931,-5.9342,-5.9286,-5.9464,-5.9494,-5.966,-5.9716,-5.9751,-5.9782,-5.9719,-5.9967,-5.999,-6.0012,-6.0089,-6.012,-5.9752,-5.9751,-5.975,-5.9749,0,-5.9133,-5.9233,-5.9327,-5.9404,-5.9461,-5.9578,-5.9571,-5.9631,-5.9606,-5.9611,-5.9747,-5.9781,-5.9863,-5.9901,-5.9878,-6.0063,-6.003,-5.9971,-5.987,-6.0054,-6.0125,-6.0155,-5.9764,-5.9761,-5.9758,-5.9756,0,0,-5.9432,-5.9495,-5.9529,-5.9562,-5.9618,-5.9693,-5.9805,-5.9886,-5.9937,-5.9993,-6.0084,-6.0206,-6.0151,-6.0195,-6.0175,-6.0254,-6.0434,-6.0185,-6.0186,-6.0228,-6.0636,-6.0679,-6.0714,-6.0402,-6.0408,-6.0412,-6.0631,0,-5.9654,-5.9851,-5.9833,-6.0018,-6.0108,-6.0046,-6.0143,-6.0187,-6.0194,-6.0269,-6.0276,-6.0363,-6.0285,-6.0311,-6.0386,-6.0396,-6.0515,-6.038,-6.0485,-6.0489,-6.0473,-6.0752,-6.0798,-6.1003,-6.0659,-6.0664,-6.0667,0,-5.994,-6.0005,-6.02,-6.024,-6.0277,-6.0365,-6.0436,-6.051,-6.0556,-6.0555,-6.0604,-6.057,-6.068,-6.0577,-6.0727,-6.0635,-6.0677,-6.0688,-6.0695,-6.0703,-6.0589,-6.0765,-6.1068,-6.1098,-6.0712,-6.0708,-6.0705,0,-6.0135,-6.0272,-6.0406,-6.0436,-6.0487,-6.0549,-6.0573,-6.0614,-6.0663,-6.0724,-6.0755,-6.0829,-6.0869,-6.0925,-6.0911,-6.0838,-6.1063,-6.096,-6.1064,-6.1064,-6.1113,-6.111,-6.1425,-6.1143,-6.1143,-6.1142,-6.1141,0,-6.0384,-6.0505,-6.0494,-6.0576,-6.0709,-6.0686,-6.0817,-6.0832,-6.0869,-6.0951,-6.0902,-6.098,-6.0957,-6.1033,-6.1022,-6.1146,-6.1165,-6.1166,-6.1161,-6.117,-6.1169,-6.1196,-6.118,-6.115,-6.1148,-6.1147,-6.1145,0,-6.0625,-6.0623,-6.0764,-6.08,-6.0812,-6.0908,-6.0937,-6.1013,-6.1015,-6.112,-6.1143,-6.1147,-6.1233,-6.1225,-6.1322,-6.1314,-6.1468,-6.1447,-6.1452,-6.1447,-6.1551,-6.1541,-6.1893,-6.1936,-6.1628,-6.1631,-6.1633,0,-6.0784,-6.0875,-6.0921,-6.0973,-6.1001,-6.1085,-6.1134,-6.1114,-6.1167,-6.1226,-6.1295,-6.1377,-6.1441,-6.1582,-6.1592,-6.1666,-6.1645,-6.1763,-6.1656,-6.166,-6.1644,-6.1639,-6.1646,-6.1784,-6.1788,-6.1791,-6.1793,0,-6.1064,-6.1058,-6.1132,-6.1206,-6.1266,-6.1323,-6.1374,-6.1419,-6.1403,-6.1465,-6.1553,-6.1603,-6.1702,-6.1783,-6.1852,-6.1874,-6.1831,-6.1827,-6.1854,-6.1863,-6.1862,-6.1862,-6.1509,-6.1819,-6.1816,-6.1814,-6.1813,-6.1812,-6.1267,-6.1345,-6.1388,-6.1472,-6.1508,-6.1557,-6.1629,-6.1641,-6.1714,-6.1794,-6.1777,-6.1876,-6.1917,-6.2005,-6.2034,-6.2109,-6.2066,-6.2106,-6.2116,-6.2126,-6.2137,-6.1851,-6.2122,-6.2121,-6.212,-6.2119,-6.2119,0,-6.1543,-6.1568,-6.1645,-6.1718,-6.1783,-6.1738,-6.1791,-6.1848,-6.1936,-6.1979,-6.2043,-6.2143,-6.2221,-6.2237,-6.2311,-6.2368,-6.235,-6.2388,-6.2383,-6.2388,-6.2173,-6.2141,-6.2402,-6.2402,-6.2401,-6.2401,-6.2401,-6.2401,-6.1695,-6.1823,-6.1821,-6.1966,-6.1989,-6.2086,-6.212,-6.2164,-6.2198,-6.2312,-6.2377,-6.2387,-6.2418,-6.2494,-6.2562,-6.2565,-6.2593,-6.2639,-6.2634,-6.2432,-6.2404,-6.2377,-6.2346,-6.2646,-6.2646,-6.2842,-6.2844,-6.2846]}]]